[[{"header":{"parameterUnit":"m.s-1","parameterCategory":1,"la1":30.2991,"la2":30.254,"lo1":-89.0895,"lo2":-89.0444,"dy":0.0017,"dx":0.0017,"nx":28,"ny":28,"refTime":"2024-03-23T03:00:00:Z","depth":0,"parameterNumber":2,"parameterNumberName":"U-component_of_WINDS"},"data":[0,0,0,0,0,0,0,0,0,0,0,0,0,0,0,0,0,0,0,0,0,0,0,0,0,0,0,0,0,0,0,0,0,0,0,0,0,0,0,0,0,0,0,0,0,0,0,0,0,0,0,0,0,0,0,0,0,0,0.5171,0.5171,0,0.5161,0.5161,0.5161,0.5142,0.5141,0.5141,0.5141,0.5128,0.5128,0.5128,0,0,0,0,0,0,0,0,0,0,0,0,0,0.5175,0.5175,0.5171,0.5171,0.5171,0.5161,0.5161,0.516,0.5142,0.5141,0.5141,0.5141,0.5128,0.5128,0.5128,0,0,0,0,0,0,0,0,0,0,0,0,0,0.517,0.5175,0.5171,0.5161,0.516,0.5161,0.5161,0.516,0.5142,0.5141,0.5141,0.514,0.5128,0.5128,0.5128,0.5139,0,0,0.5128,0.5128,0,0,0,0,0,0,0,0,0.517,0.517,0.5162,0.5161,0.516,0.5152,0.5157,0.5153,0.5142,0.5149,0.5141,0.514,0.5137,0.5136,0.5135,0.5138,0.5138,0.5128,0.5128,0.5128,0.5128,0,0,0,0,0,0,0,0.517,0.517,0.5167,0.5162,0.5161,0.5156,0.5155,0.5156,0.5146,0.5148,0.5147,0.5146,0.5136,0.5135,0.5135,0.5137,0.5128,0.5128,0.5128,0.5128,0.515,0.515,0,0,0,0,0,0,0.5172,0.517,0.5167,0.5167,0.5164,0.5156,0.5155,0.5155,0.5146,0.5144,0.5146,0.5145,0.5135,0.5135,0.5134,0.5146,0.5128,0.5128,0.5128,0.5149,0.515,0.515,0,0,0,0,0,0,0.5173,0.5172,0.5168,0.5168,0.5167,0.5157,0.5157,0.5155,0.5154,0.5144,0.5142,0.5147,0.5135,0.5134,0.5138,0.5145,0.5128,0.5128,0.5148,0.5149,0.515,0.517,0,0,0,0,0,0,0.5173,0.5173,0.5176,0.5168,0.5167,0.5172,0.5158,0.5155,0.5155,0.5153,0.5145,0.5143,0.5134,0.5138,0.5138,0.5145,0.5128,0.5148,0.5149,0.515,0.5168,0.5171,0.5174,0,0,0,0,0,0.5173,0.5182,0.5177,0.5176,0.5172,0.5173,0.5172,0.5163,0.5155,0.5159,0.5153,0.5143,0.5145,0.5139,0.5138,0.5145,0.5147,0.5148,0.515,0.5167,0.5171,0.5174,0,0,0,0,0,0,0.519,0.5181,0.5175,0.5181,0.5178,0.517,0.5174,0.5166,0.5165,0.5163,0.5151,0.5149,0.5155,0.5151,0.5144,0.5156,0.5144,0.5146,0.5158,0.5161,0.5164,0.5164,0.5128,0,0,0,0,0,0.5195,0.5196,0.5188,0.5195,0.5193,0.5184,0.5184,0.5177,0.5173,0.5171,0.5165,0.5161,0.5161,0.5161,0.516,0.5168,0.5166,0.5173,0.5175,0.5178,0.5179,0.5183,0.5186,0.5155,0.5155,0.5155,0,0,0.5204,0.5199,0.5201,0.5198,0.5195,0.5197,0.5183,0.5185,0.5186,0.5171,0.5175,0.5171,0.5165,0.5172,0.5174,0.5168,0.5187,0.5179,0.5181,0.5181,0.5185,0.5188,0.519,0.5155,0.5155,0.5155,0,0,0.5222,0.5219,0.5224,0.5221,0.5217,0.5211,0.5212,0.5205,0.5202,0.5206,0.5195,0.5196,0.5196,0.5192,0.5191,0.521,0.5201,0.521,0.5223,0.5227,0.523,0.5232,0.5239,0.5241,0.5211,0.5211,0.5211,0,0.5234,0.5237,0.5228,0.5231,0.523,0.5218,0.5224,0.5221,0.5216,0.5216,0.521,0.521,0.5205,0.5211,0.5216,0.5215,0.5216,0.521,0.523,0.5232,0.5234,0.524,0.5243,0.5212,0.5212,0.5212,0.5212,0,0.5252,0.5254,0.5259,0.5256,0.5255,0.526,0.5251,0.5252,0.5246,0.5241,0.5245,0.524,0.5238,0.5239,0.5232,0.5244,0.524,0.5233,0.5221,0.5238,0.5244,0.5246,0.5214,0.5213,0.5213,0.5213,0,0,0.5279,0.5272,0.5274,0.5272,0.5267,0.5268,0.5273,0.5272,0.5273,0.527,0.5273,0.5274,0.5267,0.5265,0.5259,0.5263,0.5278,0.5254,0.5254,0.5259,0.5291,0.5297,0.5299,0.5273,0.5273,0.5273,0.5291,0,0.5295,0.5302,0.5295,0.5303,0.5305,0.5295,0.5298,0.5296,0.5291,0.5292,0.5287,0.5288,0.5278,0.5277,0.5281,0.5275,0.5284,0.5274,0.5275,0.5275,0.5276,0.5302,0.5308,0.5325,0.5293,0.5294,0.5294,0,0.5315,0.5315,0.5324,0.5319,0.5319,0.5323,0.5322,0.5323,0.532,0.5316,0.5315,0.5308,0.5311,0.5301,0.5306,0.53,0.53,0.5297,0.5298,0.5297,0.5285,0.5302,0.533,0.5333,0.5297,0.5297,0.5297,0,0.5334,0.5336,0.5341,0.5341,0.5335,0.5338,0.5336,0.5332,0.5332,0.5332,0.5332,0.5331,0.533,0.533,0.5323,0.5316,0.5329,0.5318,0.5326,0.5326,0.5328,0.5328,0.5357,0.5329,0.5329,0.5329,0.5329,0,0.5353,0.5359,0.535,0.5353,0.536,0.5351,0.5358,0.5355,0.5352,0.5354,0.5345,0.5347,0.5338,0.5339,0.5333,0.5338,0.5338,0.5335,0.5334,0.5336,0.5336,0.5335,0.5334,0.533,0.533,0.5329,0.5329,0,0.5375,0.5369,0.5374,0.5369,0.5368,0.5373,0.5369,0.5372,0.5368,0.5371,0.5371,0.5364,0.5366,0.5358,0.5358,0.5354,0.5362,0.5359,0.5363,0.5362,0.5371,0.537,0.5399,0.5403,0.5373,0.5374,0.5374,0,0.5387,0.5391,0.5387,0.5389,0.5387,0.5389,0.539,0.5382,0.5383,0.5381,0.5384,0.5385,0.5385,0.5388,0.5383,0.5383,0.5379,0.5389,0.5379,0.5381,0.5379,0.5379,0.5379,0.5391,0.5392,0.5392,0.5392,0,0.5409,0.5406,0.5408,0.5408,0.541,0.5409,0.5409,0.541,0.5402,0.5404,0.5406,0.5406,0.5407,0.5408,0.5407,0.5404,0.5397,0.5396,0.5398,0.54,0.5402,0.5401,0.5369,0.5395,0.5395,0.5394,0.5394,0.5394,0.5426,0.543,0.5428,0.543,0.5429,0.5429,0.5432,0.5428,0.543,0.543,0.5426,0.5428,0.5426,0.5425,0.5423,0.5425,0.542,0.5423,0.5423,0.5424,0.5425,0.5403,0.5425,0.5425,0.5425,0.5425,0.5425,0,0.5448,0.5446,0.5448,0.5448,0.545,0.5444,0.5443,0.5445,0.5448,0.5447,0.5448,0.545,0.5451,0.5447,0.5447,0.545,0.5447,0.545,0.545,0.5449,0.543,0.5428,0.5453,0.5453,0.5453,0.5453,0.5453,0.5453,0.5459,0.5465,0.5462,0.5468,0.5467,0.547,0.547,0.547,0.5469,0.5473,0.5474,0.5471,0.5469,0.5469,0.5471,0.5469,0.547,0.5475,0.5472,0.5454,0.5451,0.5448,0.5446,0.5475,0.5475,0.5491,0.5491,0.5492]},{"header":{"parameterUnit":"m.s-1","parameterCategory":1,"la1":30.2991,"la2":30.254,"lo1":-89.0895,"lo2":-89.0444,"dy":0.0017,"dx":0.0017,"nx":28,"ny":28,"refTime":"2024-03-23T03:00:00:Z","depth":0,"parameterNumber":3,"parameterNumberName":"V-component_of_WINDS"},"data":[0,0,0,0,0,0,0,0,0,0,0,0,0,0,0,0,0,0,0,0,0,0,0,0,0,0,0,0,0,0,0,0,0,0,0,0,0,0,0,0,0,0,0,0,0,0,0,0,0,0,0,0,0,0,0,0,0,0,-4.5481,-4.5481,0,-4.5511,-4.5511,-4.5512,-4.5467,-4.5466,-4.5464,-4.5463,-4.5493,-4.5495,-4.5497,0,0,0,0,0,0,0,0,0,0,0,0,0,-4.5385,-4.5387,-4.5481,-4.5481,-4.5482,-4.5511,-4.5511,-4.5512,-4.5468,-4.5466,-4.5464,-4.5462,-4.5492,-4.5495,-4.5497,0,0,0,0,0,0,0,0,0,0,0,0,0,-4.5422,-4.5388,-4.5481,-4.5463,-4.5462,-4.5511,-4.5511,-4.5512,-4.5468,-4.5466,-4.5463,-4.5461,-4.5491,-4.5494,-4.5498,-4.5565,0,0,-4.5508,-4.5509,0,0,0,0,0,0,0,0,-4.542,-4.5426,-4.5465,-4.5465,-4.5463,-4.5483,-4.5488,-4.553,-4.5469,-4.5466,-4.5463,-4.546,-4.5491,-4.5494,-4.5505,-4.5566,-4.5568,-4.5508,-4.551,-4.5512,-4.5513,0,0,0,0,0,0,0,-4.5418,-4.5424,-4.5493,-4.5466,-4.5465,-4.5454,-4.5456,-4.5496,-4.5491,-4.5466,-4.5463,-4.5467,-4.549,-4.5502,-4.5506,-4.5568,-4.5508,-4.5511,-4.5513,-4.5514,-4.5687,-4.569,0,0,0,0,0,0,-4.5417,-4.5422,-4.5492,-4.5494,-4.5436,-4.5457,-4.546,-4.5479,-4.5491,-4.549,-4.5469,-4.5465,-4.5497,-4.5502,-4.5506,-4.5587,-4.5512,-4.5515,-4.5517,-4.5685,-4.5688,-4.5691,0,0,0,0,0,0,-4.5415,-4.5424,-4.5491,-4.5457,-4.5465,-4.5462,-4.5483,-4.5481,-4.5493,-4.5493,-4.5492,-4.5482,-4.5496,-4.5502,-4.5551,-4.5588,-4.5516,-4.5519,-4.5682,-4.5686,-4.5689,-4.5749,0,0,0,0,0,0,-4.5413,-4.5423,-4.5449,-4.5458,-4.5467,-4.5535,-4.5485,-4.5483,-4.5499,-4.5494,-4.5505,-4.5504,-4.5494,-4.5546,-4.5555,-4.5591,-4.5522,-4.5678,-4.5684,-4.5688,-4.5744,-4.5754,-4.5763,0,0,0,0,0,-4.541,-4.5464,-4.5451,-4.5459,-4.5499,-4.5537,-4.5542,-4.553,-4.5502,-4.5528,-4.5528,-4.5504,-4.5582,-4.5552,-4.5561,-4.5599,-4.5676,-4.5682,-4.5688,-4.5739,-4.5752,-4.5763,0,0,0,0,0,0,-4.5459,-4.5465,-4.545,-4.5509,-4.5523,-4.553,-4.5562,-4.5544,-4.5566,-4.556,-4.5543,-4.5546,-4.56,-4.5604,-4.557,-4.5665,-4.5624,-4.5632,-4.5661,-4.5673,-4.5683,-4.5681,-4.5525,0,0,0,0,0,-4.5477,-4.5508,-4.5511,-4.5563,-4.5571,-4.5565,-4.5582,-4.5571,-4.5585,-4.559,-4.5594,-4.5608,-4.5636,-4.5654,-4.568,-4.5744,-4.5746,-4.5774,-4.5784,-4.5792,-4.5799,-4.5835,-4.5848,-4.571,-4.571,-4.571,0,0,-4.5513,-4.5521,-4.5541,-4.5573,-4.5583,-4.5615,-4.5571,-4.5606,-4.5631,-4.5595,-4.5643,-4.5646,-4.5661,-4.5718,-4.5744,-4.5723,-4.5838,-4.5799,-4.5806,-4.5809,-4.5842,-4.5855,-4.5867,-4.5714,-4.5713,-4.5712,0,0,-4.5598,-4.5606,-4.5651,-4.5662,-4.5677,-4.5673,-4.5684,-4.5694,-4.5695,-4.5742,-4.5717,-4.5745,-4.5793,-4.5805,-4.5817,-4.5907,-4.5886,-4.5916,-4.5967,-4.6002,-4.6013,-4.6023,-4.6056,-4.6068,-4.5923,-4.5923,-4.5923,0,-4.5642,-4.569,-4.5676,-4.5715,-4.573,-4.57,-4.5745,-4.5756,-4.5779,-4.579,-4.5767,-4.5827,-4.5835,-4.5895,-4.5918,-4.5928,-4.594,-4.5915,-4.6013,-4.6022,-4.6031,-4.6063,-4.6075,-4.5926,-4.5926,-4.5925,-4.5925,0,-4.5744,-4.5778,-4.5812,-4.5836,-4.5855,-4.5897,-4.5889,-4.591,-4.5898,-4.5896,-4.5946,-4.5954,-4.5981,-4.5994,-4.5982,-4.6053,-4.604,-4.6015,-4.5974,-4.6048,-4.6077,-4.6089,-4.5931,-4.593,-4.5929,-4.5928,0,0,-4.586,-4.5876,-4.5889,-4.59,-4.5916,-4.5942,-4.5982,-4.6009,-4.6028,-4.6045,-4.6079,-4.6121,-4.6098,-4.6112,-4.6101,-4.6131,-4.6204,-4.6103,-4.6103,-4.6122,-4.6284,-4.6304,-4.6318,-4.619,-4.6192,-4.6194,-4.6283,0,-4.5946,-4.6016,-4.6005,-4.6074,-4.6106,-4.6078,-4.6114,-4.6127,-4.6127,-4.6154,-4.6153,-4.6184,-4.6151,-4.6159,-4.6188,-4.6189,-4.6236,-4.6182,-4.6222,-4.6224,-4.6221,-4.6333,-4.6354,-4.6438,-4.6295,-4.6297,-4.6298,0,-4.6054,-4.6076,-4.6149,-4.616,-4.6173,-4.6205,-4.623,-4.6256,-4.627,-4.6268,-4.6285,-4.6268,-4.6309,-4.6267,-4.6324,-4.6287,-4.6303,-4.6306,-4.6309,-4.6313,-4.6266,-4.6342,-4.6465,-4.6478,-4.6316,-4.6314,-4.6313,0,-4.6134,-4.6181,-4.6231,-4.6241,-4.6255,-4.6278,-4.6285,-4.6298,-4.6315,-4.6337,-4.6348,-4.6373,-4.6388,-4.6408,-4.6399,-4.6369,-4.6458,-4.6415,-4.6458,-4.6459,-4.6479,-4.6478,-4.6607,-4.6487,-4.6487,-4.6486,-4.6486,0,-4.6231,-4.6276,-4.6267,-4.6297,-4.6348,-4.6334,-4.6385,-4.6388,-4.64,-4.6431,-4.6408,-4.6437,-4.6423,-4.6452,-4.6445,-4.6494,-4.65,-4.65,-4.6498,-4.6503,-4.6503,-4.6514,-4.6508,-4.649,-4.6489,-4.6488,-4.6488,0,-4.6328,-4.6323,-4.6376,-4.6385,-4.6389,-4.6426,-4.6434,-4.6463,-4.6461,-4.6501,-4.6509,-4.6507,-4.6539,-4.6533,-4.6568,-4.6564,-4.6625,-4.6615,-4.6621,-4.6619,-4.6663,-4.666,-4.6805,-4.6824,-4.669,-4.6691,-4.6692,0,-4.6391,-4.6425,-4.6439,-4.6459,-4.6468,-4.6499,-4.6517,-4.6505,-4.6525,-4.6545,-4.6572,-4.6603,-4.6627,-4.668,-4.6681,-4.6709,-4.67,-4.6749,-4.6704,-4.6708,-4.6702,-4.6701,-4.6705,-4.6758,-4.676,-4.6761,-4.6762,0,-4.6503,-4.65,-4.6527,-4.6554,-4.6576,-4.6596,-4.6615,-4.6632,-4.6621,-4.6645,-4.6679,-4.6697,-4.6734,-4.6766,-4.6791,-4.6798,-4.6779,-4.6776,-4.6788,-4.6794,-4.6796,-4.6797,-4.6647,-4.6773,-4.6772,-4.6771,-4.6771,-4.677,-4.6586,-4.6616,-4.6631,-4.6662,-4.6675,-4.6693,-4.6721,-4.6723,-4.6751,-4.6781,-4.6772,-4.6811,-4.6825,-4.6858,-4.6868,-4.6898,-4.6879,-4.6896,-4.69,-4.6905,-4.6911,-4.6791,-4.6902,-4.6902,-4.6901,-4.6901,-4.6901,0,-4.6698,-4.6707,-4.6736,-4.6763,-4.6788,-4.6768,-4.6787,-4.6809,-4.6844,-4.6859,-4.6884,-4.6923,-4.6953,-4.6957,-4.6986,-4.7009,-4.7002,-4.7017,-4.7016,-4.7019,-4.6925,-4.6913,-4.7024,-4.7024,-4.7024,-4.7023,-4.7023,-4.7023,-4.676,-4.681,-4.6809,-4.6865,-4.6873,-4.6911,-4.6924,-4.6941,-4.6953,-4.6998,-4.7024,-4.7026,-4.7037,-4.7067,-4.7094,-4.7095,-4.7107,-4.7127,-4.7124,-4.7037,-4.7025,-4.7013,-4.7002,-4.7129,-4.7129,-4.7215,-4.7216,-4.7216]}]]